Location: Campolattaro
(41.2833°N, 14.7333°E)
Time: 01:57:17
(UTC+00:00)

Cosmos 1726 Rocket - Pass Details

Date: 19 May 2025
Orbit: 554 x 664 km, 82.5° (Epoch: 23 June)

Event Time Altitude Azimuth Distance (km) Brightness Sun altitude
Rises 18:39:35 0° 166° (SSE) 2,970 6.6 -4.5°
Reaches altitude 10° 18:41:59 10° 158° (SSE) 2,052 5.8 -4.9°
Maximum altitude 18:46:10 37° 92° (E) 1,005 4.2 -5.6°
Drops below altitude 10° 18:50:17 10° 25° (NNE) 2,015 6.3 -6.2°
Sets 18:52:36 0° 17° (NNE) 2,908 7.2 -6.6°
